owner,sensor,date,latitude,longitude,vertical_datum,direction_of_sea_water_velocity,sea_water_speed,upward_sea_water_velocity,qcFlag 
TABS,ioos:station:TABS:A:1,1997-02-01T00:00:00Z,29.5325,-93.8116,2.0,216.2702095,11.08860677,-99999.0,'11111222,11111222,99999999' 
TABS,ioos:station:TABS:A:1,1997-02-01T00:30:00Z,29.5325,-93.8116,2.0,216.8888148,5.964000335,-99999.0,'11133222,11111222,99999999' 
TABS,ioos:station:TABS:A:1,1997-02-01T01:00:00Z,29.5325,-93.8116,2.0,224.9996843,5.062884553,-99999.0,'11133222,11111222,99999999' 
TABS,ioos:station:TABS:A:1,1997-02-01T01:30:00Z,29.5325,-93.8116,2.0,231.8121137,5.305402906,-99999.0,'11133222,11111222,99999999' 
TABS,ioos:station:TABS:A:1,1997-02-01T02:00:00Z,29.5325,-93.8116,2.0,238.4086744,4.543269748,-99999.0,'11133222,11111222,99999999' 
TABS,ioos:station:TABS:A:1,1997-02-01T02:30:00Z,29.5325,-93.8116,2.0,215.9647104,4.052505398,-99999.0,'11133222,11111222,99999999' 
TABS,ioos:station:TABS:A:1,1997-02-01T03:00:00Z,29.5325,-93.8116,2.0,179.9997895,2.68,-99999.0,'11133222,11111222,99999999' 
TABS,ioos:station:TABS:A:1,1997-02-01T03:30:00Z,29.5325,-93.8116,2.0,213.9858772,1.073359213,-99999.0,'11133222,11111222,99999999' 
TABS,ioos:station:TABS:A:1,1997-02-01T04:00:00Z,29.5325,-93.8116,2.0,45.00010523,0.424264069,-99999.0,'11133222,11111222,99999999' 
TABS,ioos:station:TABS:A:1,1997-02-01T04:30:00Z,29.5325,-93.8116,2.0,143.207092,1.486001346,-99999.0,'11133222,11111222,99999999' 
TABS,ioos:station:TABS:A:1,1997-02-01T05:00:00Z,29.5325,-93.8116,2.0,144.5140931,2.566748916,-99999.0,'11133222,11111222,99999999' 
TABS,ioos:station:TABS:A:1,1997-02-01T05:30:00Z,29.5325,-93.8116,2.0,116.5649891,4.00256168,-99999.0,'11133222,11111222,99999999' 
TABS,ioos:station:TABS:A:1,1997-02-01T06:00:00Z,29.5325,-93.8116,2.0,107.6717107,6.884889251,-99999.0,'11133222,11111222,99999999' 
TABS,ioos:station:TABS:A:1,1997-02-01T06:30:00Z,29.5325,-93.8116,2.0,105.250151,10.18878305,-99999.0,'11111222,11111222,99999999' 
TABS,ioos:station:TABS:A:1,1997-02-01T07:00:00Z,29.5325,-93.8116,2.0,104.3619894,13.22325603,-99999.0,'11111222,11111222,99999999' 
TABS,ioos:station:TABS:A:1,1997-02-01T07:30:00Z,29.5325,-93.8116,2.0,105.2735715,13.59001472,-99999.0,'11111222,11111222,99999999' 
TABS,ioos:station:TABS:A:1,1997-02-01T08:00:00Z,29.5325,-93.8116,2.0,107.9867279,12.53248978,-99999.0,'11111222,11111222,99999999' 
TABS,ioos:station:TABS:A:1,1997-02-01T08:30:00Z,29.5325,-93.8116,2.0,112.5331974,13.23001512,-99999.0,'11111222,11111222,99999999' 
TABS,ioos:station:TABS:A:1,1997-02-01T09:00:00Z,29.5325,-93.8116,2.0,112.7888896,16.16160883,-99999.0,'11111222,11111222,99999999' 
TABS,ioos:station:TABS:A:1,1997-02-01T09:30:00Z,29.5325,-93.8116,2.0,113.3439564,16.55516838,-99999.0,'11111222,11111222,99999999' 
TABS,ioos:station:TABS:A:1,1997-02-01T10:00:00Z,29.5325,-93.8116,2.0,117.3288857,20.12640057,-99999.0,'11111222,11111222,99999999' 
TABS,ioos:station:TABS:A:1,1997-02-01T10:30:00Z,29.5325,-93.8116,2.0,123.9366579,18.68247575,-99999.0,'11111222,11111222,99999999' 
TABS,ioos:station:TABS:A:1,1997-02-01T11:00:00Z,29.5325,-93.8116,2.0,124.5050413,17.35277788,-99999.0,'11111222,11111222,99999999' 
TABS,ioos:station:TABS:A:1,1997-02-01T11:30:00Z,29.5325,-93.8116,2.0,125.4360626,19.02395595,-99999.0,'11111222,11111222,99999999' 
TABS,ioos:station:TABS:A:1,1997-02-01T12:00:00Z,29.5325,-93.8116,2.0,128.7973593,19.50303566,-99999.0,'11111222,11111222,99999999' 
TABS,ioos:station:TABS:A:1,1997-02-01T12:30:00Z,29.5325,-93.8116,2.0,132.1094144,20.89330275,-99999.0,'11111222,11111222,99999999' 
TABS,ioos:station:TABS:A:1,1997-02-01T13:00:00Z,29.5325,-93.8116,2.0,144.4654424,20.50957094,-99999.0,'11111222,11111222,99999999' 
TABS,ioos:station:TABS:A:1,1997-02-01T13:30:00Z,29.5325,-93.8116,2.0,154.6200585,19.45795467,-99999.0,'11111222,11111222,99999999' 
TABS,ioos:station:TABS:A:1,1997-02-01T14:00:00Z,29.5325,-93.8116,2.0,167.0811829,18.65211248,-99999.0,'11111222,11111222,99999999' 
TABS,ioos:station:TABS:A:1,1997-02-01T14:30:00Z,29.5325,-93.8116,2.0,174.8778137,20.05006234,-99999.0,'11111222,11111222,99999999' 
TABS,ioos:station:TABS:A:1,1997-02-01T15:00:00Z,29.5325,-93.8116,2.0,170.051482,17.24936231,-99999.0,'11111222,11111222,99999999' 
TABS,ioos:station:TABS:A:1,1997-02-01T15:30:00Z,29.5325,-93.8116,2.0,169.8763297,16.95395234,-99999.0,'11111222,11111222,99999999' 
TABS,ioos:station:TABS:A:1,1997-02-01T16:00:00Z,29.5325,-93.8116,2.0,159.9395999,16.50107875,-99999.0,'11111222,11111222,99999999' 
TABS,ioos:station:TABS:A:1,1997-02-01T16:30:00Z,29.5325,-93.8116,2.0,165.2062619,16.33135022,-99999.0,'11111222,11111222,99999999' 
TABS,ioos:station:TABS:A:1,1997-02-01T17:00:00Z,29.5325,-93.8116,2.0,174.1100652,20.3675158,-99999.0,'11111222,11111222,99999999' 
TABS,ioos:station:TABS:A:1,1997-02-01T17:30:00Z,29.5325,-93.8116,2.0,187.9054786,21.66591794,-99999.0,'11111222,11111222,99999999' 
TABS,ioos:station:TABS:A:1,1997-02-01T18:00:00Z,29.5325,-93.8116,2.0,190.8530449,22.14613736,-99999.0,'11111222,11111222,99999999' 
TABS,ioos:station:TABS:A:1,1997-02-01T18:30:00Z,29.5325,-93.8116,2.0,188.3486807,22.58939796,-99999.0,'11111222,11111222,99999999' 
TABS,ioos:station:TABS:A:1,1997-02-01T19:00:00Z,29.5325,-93.8116,2.0,180.887106,19.37232304,-99999.0,'11111222,11111222,99999999' 
TABS,ioos:station:TABS:A:1,1997-02-01T19:30:00Z,29.5325,-93.8116,2.0,182.6718478,19.09075693,-99999.0,'11111222,11111222,99999999' 
TABS,ioos:station:TABS:A:1,1997-02-01T20:00:00Z,29.5325,-93.8116,2.0,181.048403,16.39274535,-99999.0,'11111222,11111222,99999999' 
TABS,ioos:station:TABS:A:1,1997-02-01T20:30:00Z,29.5325,-93.8116,2.0,176.9473706,16.71371293,-99999.0,'11111222,11111222,99999999' 
TABS,ioos:station:TABS:A:1,1997-02-01T21:00:00Z,29.5325,-93.8116,2.0,172.6612004,18.6326273,-99999.0,'11111222,11111222,99999999' 
TABS,ioos:station:TABS:A:1,1997-02-01T21:30:00Z,29.5325,-93.8116,2.0,159.5760956,16.21960542,-99999.0,'11111222,11111222,99999999' 
TABS,ioos:station:TABS:A:1,1997-02-01T22:00:00Z,29.5325,-93.8116,2.0,159.4525747,15.27152907,-99999.0,'11111222,11111222,99999999' 
TABS,ioos:station:TABS:A:1,1997-02-01T22:30:00Z,29.5325,-93.8116,2.0,159.777323,12.06363544,-99999.0,'11111222,11111222,99999999' 
TABS,ioos:station:TABS:A:1,1997-02-01T23:00:00Z,29.5325,-93.8116,2.0,158.1901441,12.83897582,-99999.0,'11111222,11111222,99999999' 
TABS,ioos:station:TABS:A:1,1997-02-01T23:30:00Z,29.5325,-93.8116,2.0,149.3511443,9.357104253,-99999.0,'11133222,11111222,99999999' 
TABS,ioos:station:TABS:A:1,1997-02-02T00:00:00Z,29.5325,-93.8116,2.0,149.4618477,7.616462433,-99999.0,'11133222,11111222,99999999' 
TABS,ioos:station:TABS:A:1,1997-02-02T00:30:00Z,29.5325,-93.8116,2.0,160.2145773,7.917379617,-99999.0,'11133222,11111222,99999999' 
TABS,ioos:station:TABS:A:1,1997-02-02T01:00:00Z,29.5325,-93.8116,2.0,170.5721616,5.433387525,-99999.0,'11133222,11111222,99999999' 
TABS,ioos:station:TABS:A:1,1997-02-02T01:30:00Z,29.5325,-93.8116,2.0,160.5538891,5.376709031,-99999.0,'11133222,11111222,99999999' 
TABS,ioos:station:TABS:A:1,1997-02-02T02:00:00Z,29.5325,-93.8116,2.0,168.6159537,3.039802625,-99999.0,'11133222,11111222,99999999' 
TABS,ioos:station:TABS:A:1,1997-02-02T02:30:00Z,29.5325,-93.8116,2.0,156.9337285,2.27160736,-99999.0,'11133222,11111222,99999999' 
TABS,ioos:station:TABS:A:1,1997-02-02T03:00:00Z,29.5325,-93.8116,2.0,192.6190823,2.746343023,-99999.0,'11133222,11111222,99999999' 
TABS,ioos:station:TABS:A:1,1997-02-02T03:30:00Z,29.5325,-93.8116,2.0,179.9997895,1.49,-99999.0,'11133222,11111222,99999999' 
TABS,ioos:station:TABS:A:1,1997-02-02T04:00:00Z,29.5325,-93.8116,2.0,179.9997895,0.89,-99999.0,'11133222,11111222,99999999' 
TABS,ioos:station:TABS:A:1,1997-02-02T04:30:00Z,29.5325,-93.8116,2.0,224.9996843,0.848528137,-99999.0,'11133222,11111222,99999999' 
TABS,ioos:station:TABS:A:1,1997-02-02T05:00:00Z,29.5325,-93.8116,2.0,270.0004209,0.6,-99999.0,'11133222,11111222,99999999' 
TABS,ioos:station:TABS:A:1,1997-02-02T05:30:00Z,29.5325,-93.8116,2.0,0.0,0.0,-99999.0,'11133222,11111222,99999999' 
TABS,ioos:station:TABS:A:1,1997-02-02T06:00:00Z,29.5325,-93.8116,2.0,73.98225274,2.174419463,-99999.0,'11133222,11111222,99999999' 
TABS,ioos:station:TABS:A:1,1997-02-02T06:30:00Z,29.5325,-93.8116,2.0,70.05902809,3.489197615,-99999.0,'11133222,11111222,99999999' 
TABS,ioos:station:TABS:A:1,1997-02-02T07:00:00Z,29.5325,-93.8116,2.0,60.28479076,4.801385217,-99999.0,'11133222,11111222,99999999' 
TABS,ioos:station:TABS:A:1,1997-02-02T07:30:00Z,29.5325,-93.8116,2.0,65.1779922,4.263918386,-99999.0,'11133222,11111222,99999999' 
TABS,ioos:station:TABS:A:1,1997-02-02T08:00:00Z,29.5325,-93.8116,2.0,62.1391526,5.734744981,-99999.0,'11133222,11111222,99999999' 
TABS,ioos:station:TABS:A:1,1997-02-02T08:30:00Z,29.5325,-93.8116,2.0,66.05740627,5.864639801,-99999.0,'11133222,11111222,99999999' 
TABS,ioos:station:TABS:A:1,1997-02-02T09:00:00Z,29.5325,-93.8116,2.0,65.56926472,7.205137056,-99999.0,'11133222,11111222,99999999' 
TABS,ioos:station:TABS:A:1,1997-02-02T09:30:00Z,29.5325,-93.8116,2.0,59.88262545,10.68209717,-99999.0,'11111222,11111222,99999999' 
TABS,ioos:station:TABS:A:1,1997-02-02T10:00:00Z,29.5325,-93.8116,2.0,55.43176152,16.2851374,-99999.0,'11111222,11111222,99999999' 
TABS,ioos:station:TABS:A:1,1997-02-02T10:30:00Z,29.5325,-93.8116,2.0,58.28152996,19.26782292,-99999.0,'11111222,11111222,99999999' 
TABS,ioos:station:TABS:A:1,1997-02-02T11:00:00Z,29.5325,-93.8116,2.0,68.67717554,26.23595243,-99999.0,'11111222,11111222,99999999' 
TABS,ioos:station:TABS:A:1,1997-02-02T11:30:00Z,29.5325,-93.8116,2.0,67.59300903,31.27098495,-99999.0,'11111222,11111222,99999999' 
TABS,ioos:station:TABS:A:1,1997-02-02T12:00:00Z,29.5325,-93.8116,2.0,74.51323866,31.23404553,-99999.0,'11111222,11111222,99999999' 
TABS,ioos:station:TABS:A:1,1997-02-02T12:30:00Z,29.5325,-93.8116,2.0,80.87761369,33.8076027,-99999.0,'11111222,11111222,99999999' 
TABS,ioos:station:TABS:A:1,1997-02-02T13:00:00Z,29.5325,-93.8116,2.0,81.64530644,32.82839168,-99999.0,'11111222,11111222,99999999' 
TABS,ioos:station:TABS:A:1,1997-02-02T13:30:00Z,29.5325,-93.8116,2.0,84.98469109,27.22423185,-99999.0,'11111222,11111222,99999999' 
TABS,ioos:station:TABS:A:1,1997-02-02T14:00:00Z,29.5325,-93.8116,2.0,95.4971678,24.84426091,-99999.0,'11111222,11111222,99999999' 
TABS,ioos:station:TABS:A:1,1997-02-02T14:30:00Z,29.5325,-93.8116,2.0,96.97245013,27.01982235,-99999.0,'11111222,11111222,99999999' 
TABS,ioos:station:TABS:A:1,1997-02-02T15:00:00Z,29.5325,-93.8116,2.0,103.1145143,31.5118803,-99999.0,'11111222,11111222,99999999' 
TABS,ioos:station:TABS:A:1,1997-02-02T15:30:00Z,29.5325,-93.8116,2.0,108.6011402,32.69808863,-99999.0,'11111222,11111222,99999999' 
TABS,ioos:station:TABS:A:1,1997-02-02T16:00:00Z,29.5325,-93.8116,2.0,116.0904185,31.85611715,-99999.0,'11111222,11111222,99999999' 
TABS,ioos:station:TABS:A:1,1997-02-02T16:30:00Z,29.5325,-93.8116,2.0,119.6757352,31.89307448,-99999.0,'11111222,11111222,99999999' 
TABS,ioos:station:TABS:A:1,1997-02-02T17:00:00Z,29.5325,-93.8116,2.0,123.0237903,35.54204412,-99999.0,'11111222,11111222,99999999' 
TABS,ioos:station:TABS:A:1,1997-02-02T17:30:00Z,29.5325,-93.8116,2.0,133.9501229,34.34994178,-99999.0,'11111222,11111222,99999999' 
TABS,ioos:station:TABS:A:1,1997-02-02T18:00:00Z,29.5325,-93.8116,2.0,150.5002954,33.89404225,-99999.0,'11111222,11111222,99999999' 
TABS,ioos:station:TABS:A:1,1997-02-02T18:30:00Z,29.5325,-93.8116,2.0,144.3155399,28.61212505,-99999.0,'11111222,11111222,99999999' 
TABS,ioos:station:TABS:A:1,1997-02-02T19:00:00Z,29.5325,-93.8116,2.0,151.4457028,26.79977052,-99999.0,'11111222,11111222,99999999' 
TABS,ioos:station:TABS:A:1,1997-02-02T19:30:00Z,29.5325,-93.8116,2.0,135.9146866,26.13092612,-99999.0,'11111222,11111222,99999999' 
TABS,ioos:station:TABS:A:1,1997-02-02T20:00:00Z,29.5325,-93.8116,2.0,129.9830437,26.44102305,-99999.0,'11111222,11111222,99999999' 
TABS,ioos:station:TABS:A:1,1997-02-02T20:30:00Z,29.5325,-93.8116,2.0,135.4459458,26.34052581,-99999.0,'11111222,11111222,99999999' 
TABS,ioos:station:TABS:A:1,1997-02-02T21:00:00Z,29.5325,-93.8116,2.0,140.9618257,28.3883233,-99999.0,'11111222,11111222,99999999' 
TABS,ioos:station:TABS:A:1,1997-02-02T21:30:00Z,29.5325,-93.8116,2.0,153.77895,21.59186189,-99999.0,'11111222,11111222,99999999' 
TABS,ioos:station:TABS:A:1,1997-02-02T22:00:00Z,29.5325,-93.8116,2.0,157.0337287,19.09342557,-99999.0,'11111222,11111222,99999999' 
TABS,ioos:station:TABS:A:1,1997-02-02T22:30:00Z,29.5325,-93.8116,2.0,157.2108999,16.16160883,-99999.0,'11111222,11111222,99999999' 
TABS,ioos:station:TABS:A:1,1997-02-02T23:00:00Z,29.5325,-93.8116,2.0,152.1155789,11.46065007,-99999.0,'11111222,11111222,99999999' 
TABS,ioos:station:TABS:A:1,1997-02-02T23:30:00Z,29.5325,-93.8116,2.0,151.9340215,15.19705893,-99999.0,'11111222,11111222,99999999' 
TABS,ioos:station:TABS:A:1,1997-02-03T00:00:00Z,29.5325,-93.8116,2.0,150.8314513,14.6703306,-99999.0,'11111222,11111222,99999999' 
TABS,ioos:station:TABS:A:1,1997-02-03T00:30:00Z,29.5325,-93.8116,2.0,182.9556315,11.63548022,-99999.0,'11111222,11111222,99999999' 
TABS,ioos:station:TABS:A:1,1997-02-03T01:00:00Z,29.5325,-93.8116,2.0,190.1960976,11.8064601,-99999.0,'11111222,11111222,99999999' 
TABS,ioos:station:TABS:A:1,1997-02-03T01:30:00Z,29.5325,-93.8116,2.0,188.1202547,8.42447031,-99999.0,'11133222,11111222,99999999' 
TABS,ioos:station:TABS:A:1,1997-02-03T02:00:00Z,29.5325,-93.8116,2.0,198.4106518,7.535708328,-99999.0,'11133222,11111222,99999999' 
TABS,ioos:station:TABS:A:1,1997-02-03T02:30:00Z,29.5325,-93.8116,2.0,188.091428,6.322950261,-99999.0,'11133222,11111222,99999999' 
TABS,ioos:station:TABS:A:1,1997-02-03T03:00:00Z,29.5325,-93.8116,2.0,205.5241162,14.52789386,-99999.0,'11111222,11111222,99999999' 
TABS,ioos:station:TABS:A:1,1997-02-03T03:30:00Z,29.5325,-93.8116,2.0,229.0779725,11.83157217,-99999.0,'11111222,11111222,99999999' 
TABS,ioos:station:TABS:A:1,1997-02-03T04:00:00Z,29.5325,-93.8116,2.0,245.9234118,15.34495683,-99999.0,'11111222,11111222,99999999' 
TABS,ioos:station:TABS:A:1,1997-02-03T04:30:00Z,29.5325,-93.8116,2.0,267.49371,13.72312282,-99999.0,'11111222,11111222,99999999' 
TABS,ioos:station:TABS:A:1,1997-02-03T05:00:00Z,29.5325,-93.8116,2.0,295.105964,10.53529781,-99999.0,'11111222,11111222,99999999' 
TABS,ioos:station:TABS:A:1,1997-02-03T05:30:00Z,29.5325,-93.8116,2.0,315.0003157,3.365828278,-99999.0,'11133222,11111222,99999999' 
TABS,ioos:station:TABS:A:1,1997-02-03T06:00:00Z,29.5325,-93.8116,2.0,270.0004209,6.85,-99999.0,'11133222,11111222,99999999' 
TABS,ioos:station:TABS:A:1,1997-02-03T06:30:00Z,29.5325,-93.8116,2.0,260.0547024,12.1018387,-99999.0,'11111222,11111222,99999999' 
TABS,ioos:station:TABS:A:1,1997-02-03T07:00:00Z,29.5325,-93.8116,2.0,309.826921,6.979290795,-99999.0,'11133222,11111222,99999999' 
TABS,ioos:station:TABS:A:1,1997-02-03T07:30:00Z,29.5325,-93.8116,2.0,5.748860433,5.990125207,-99999.0,'11133222,11111222,99999999' 
TABS,ioos:station:TABS:A:1,1997-02-03T08:00:00Z,29.5325,-93.8116,2.0,11.87353465,5.783744462,-99999.0,'11133222,11111222,99999999' 
TABS,ioos:station:TABS:A:1,1997-02-03T08:30:00Z,29.5325,-93.8116,2.0,11.26080871,4.557740668,-99999.0,'11133222,11111222,99999999' 
TABS,ioos:station:TABS:A:1,1997-02-03T09:00:00Z,29.5325,-93.8116,2.0,343.2833677,6.22299767,-99999.0,'11133222,11111222,99999999' 
TABS,ioos:station:TABS:A:1,1997-02-03T09:30:00Z,29.5325,-93.8116,2.0,354.6704456,9.581424737,-99999.0,'11133222,11111222,99999999' 
TABS,ioos:station:TABS:A:1,1997-02-03T10:00:00Z,29.5325,-93.8116,2.0,17.98201034,11.5964348,-99999.0,'11111222,11111222,99999999' 
TABS,ioos:station:TABS:A:1,1997-02-03T10:30:00Z,29.5325,-93.8116,2.0,28.38447097,12.53724451,-99999.0,'11111222,11111222,99999999' 
TABS,ioos:station:TABS:A:1,1997-02-03T11:00:00Z,29.5325,-93.8116,2.0,38.64652739,13.35441874,-99999.0,'11111222,11111222,99999999' 
TABS,ioos:station:TABS:A:1,1997-02-03T11:30:00Z,29.5325,-93.8116,2.0,43.14051024,13.07421891,-99999.0,'11111222,11111222,99999999' 
TABS,ioos:station:TABS:A:1,1997-02-03T12:00:00Z,29.5325,-93.8116,2.0,29.7450222,12.01276404,-99999.0,'11111222,11111222,99999999' 
TABS,ioos:station:TABS:A:1,1997-02-03T12:30:00Z,29.5325,-93.8116,2.0,32.33842907,10.58107745,-99999.0,'11111222,11111222,99999999' 
TABS,ioos:station:TABS:A:1,1997-02-03T13:00:00Z,29.5325,-93.8116,2.0,54.44941015,10.25071705,-99999.0,'11111222,11111222,99999999' 
TABS,ioos:station:TABS:A:1,1997-02-03T13:30:00Z,29.5325,-93.8116,2.0,43.77252927,9.901767519,-99999.0,'11133222,11111222,99999999' 
TABS,ioos:station:TABS:A:1,1997-02-03T14:00:00Z,29.5325,-93.8116,2.0,57.36992266,8.846208227,-99999.0,'11133222,11111222,99999999' 
TABS,ioos:station:TABS:A:1,1997-02-03T14:30:00Z,29.5325,-93.8116,2.0,64.85338328,5.600830296,-99999.0,'11133222,11111222,99999999' 
TABS,ioos:station:TABS:A:1,1997-02-03T15:00:00Z,29.5325,-93.8116,2.0,82.81574941,2.39883305,-99999.0,'11133222,11111222,99999999' 
TABS,ioos:station:TABS:A:1,1997-02-03T15:30:00Z,29.5325,-93.8116,2.0,175.5671314,3.881610491,-99999.0,'11133222,11111222,99999999' 
TABS,ioos:station:TABS:A:1,1997-02-03T16:00:00Z,29.5325,-93.8116,2.0,270.0004209,1.49,-99999.0,'11133222,11111222,99999999' 
TABS,ioos:station:TABS:A:1,1997-02-03T16:30:00Z,29.5325,-93.8116,2.0,228.3926874,3.584243295,-99999.0,'11133222,11111222,99999999' 
TABS,ioos:station:TABS:A:1,1997-02-03T17:00:00Z,29.5325,-93.8116,2.0,249.4963646,2.540964384,-99999.0,'11133222,11111222,99999999' 
TABS,ioos:station:TABS:A:1,1997-02-03T17:30:00Z,29.5325,-93.8116,2.0,290.5695804,5.094801272,-99999.0,'11133222,11111222,99999999' 
TABS,ioos:station:TABS:A:1,1997-02-03T18:00:00Z,29.5325,-93.8116,2.0,310.2831106,5.072997142,-99999.0,'11133222,11111222,99999999' 
TABS,ioos:station:TABS:A:1,1997-02-03T18:30:00Z,29.5325,-93.8116,2.0,328.0057004,5.624348851,-99999.0,'11133222,11111222,99999999' 
TABS,ioos:station:TABS:A:1,1997-02-03T19:00:00Z,29.5325,-93.8116,2.0,306.3812344,7.030256041,-99999.0,'11133222,11111222,99999999' 
TABS,ioos:station:TABS:A:1,1997-02-03T19:30:00Z,29.5325,-93.8116,2.0,324.3322293,14.30314651,-99999.0,'11111222,11111222,99999999' 
TABS,ioos:station:TABS:A:1,1997-02-03T20:00:00Z,29.5325,-93.8116,2.0,305.7592892,18.36145147,-99999.0,'11111222,11111222,99999999' 
TABS,ioos:station:TABS:A:1,1997-02-03T20:30:00Z,29.5325,-93.8116,2.0,303.6780854,12.89400636,-99999.0,'11111222,11111222,99999999' 
TABS,ioos:station:TABS:A:1,1997-02-03T21:00:00Z,29.5325,-93.8116,2.0,315.9779622,12.43274708,-99999.0,'11111222,11111222,99999999' 
TABS,ioos:station:TABS:A:1,1997-02-03T21:30:00Z,29.5325,-93.8116,2.0,308.8141896,15.68302586,-99999.0,'11111222,11111222,99999999' 
TABS,ioos:station:TABS:A:1,1997-02-03T22:00:00Z,29.5325,-93.8116,2.0,320.0498583,16.71014662,-99999.0,'11111222,11111222,99999999' 
TABS,ioos:station:TABS:A:1,1997-02-03T22:30:00Z,29.5325,-93.8116,2.0,322.9066538,13.82810544,-99999.0,'11111222,11111222,99999999' 
TABS,ioos:station:TABS:A:1,1997-02-03T23:00:00Z,29.5325,-93.8116,2.0,327.1773953,10.99541723,-99999.0,'11111222,11111222,99999999' 
TABS,ioos:station:TABS:A:1,1997-02-03T23:30:00Z,29.5325,-93.8116,2.0,324.4712746,7.692106344,-99999.0,'11133222,11111222,99999999' 
TABS,ioos:station:TABS:A:1,1997-02-04T00:00:00Z,29.5325,-93.8116,2.0,333.4352214,5.99266218,-99999.0,'11133222,11111222,99999999' 
TABS,ioos:station:TABS:A:1,1997-02-04T00:30:00Z,29.5325,-93.8116,2.0,334.3245666,8.931931482,-99999.0,'11133222,11111222,99999999' 
TABS,ioos:station:TABS:A:1,1997-02-04T01:00:00Z,29.5325,-93.8116,2.0,338.5312722,8.961807853,-99999.0,'11133222,11111222,99999999' 
TABS,ioos:station:TABS:A:1,1997-02-04T01:30:00Z,29.5325,-93.8116,2.0,349.4313547,4.852319033,-99999.0,'11133222,11111222,99999999' 
TABS,ioos:station:TABS:A:1,1997-02-04T02:00:00Z,29.5325,-93.8116,2.0,10.56906619,4.852319033,-99999.0,'11133222,11111222,99999999' 
TABS,ioos:station:TABS:A:1,1997-02-04T02:30:00Z,29.5325,-93.8116,2.0,4.432868562,3.881610491,-99999.0,'11133222,11111222,99999999' 
TABS,ioos:station:TABS:A:1,1997-02-04T03:00:00Z,29.5325,-93.8116,2.0,326.0141228,1.073359213,-99999.0,'11133222,11111222,99999999' 
TABS,ioos:station:TABS:A:1,1997-02-04T03:30:00Z,29.5325,-93.8116,2.0,303.9865086,1.073359213,-99999.0,'11133222,11111222,99999999' 
TABS,ioos:station:TABS:A:1,1997-02-04T04:00:00Z,29.5325,-93.8116,2.0,252.6524347,4.997299271,-99999.0,'11133222,11111222,99999999' 
TABS,ioos:station:TABS:A:1,1997-02-04T04:30:00Z,29.5325,-93.8116,2.0,256.6112373,6.434881506,-99999.0,'11133222,11111222,99999999' 
TABS,ioos:station:TABS:A:1,1997-02-04T05:00:00Z,29.5325,-93.8116,2.0,237.2713743,9.913889247,-99999.0,'11133222,11111222,99999999' 
TABS,ioos:station:TABS:A:1,1997-02-04T05:30:00Z,29.5325,-93.8116,2.0,227.93035,12.44721656,-99999.0,'11111222,11111222,99999999' 
TABS,ioos:station:TABS:A:1,1997-02-04T06:00:00Z,29.5325,-93.8116,2.0,221.6398595,14.35773311,-99999.0,'11111222,11111222,99999999' 
TABS,ioos:station:TABS:A:1,1997-02-04T06:30:00Z,29.5325,-93.8116,2.0,210.3318937,14.15806837,-99999.0,'11111222,11111222,99999999' 
TABS,ioos:station:TABS:A:1,1997-02-04T07:00:00Z,29.5325,-93.8116,2.0,206.1106615,16.92756628,-99999.0,'11111222,11111222,99999999' 
TABS,ioos:station:TABS:A:1,1997-02-04T07:30:00Z,29.5325,-93.8116,2.0,196.5307058,19.8922221,-99999.0,'11111222,11111222,99999999' 
TABS,ioos:station:TABS:A:1,1997-02-04T08:00:00Z,29.5325,-93.8116,2.0,199.6118374,23.08949978,-99999.0,'11111222,11111222,99999999' 
TABS,ioos:station:TABS:A:1,1997-02-04T08:30:00Z,29.5325,-93.8116,2.0,201.0946727,26.50631057,-99999.0,'11111222,11111222,99999999' 
TABS,ioos:station:TABS:A:1,1997-02-04T09:00:00Z,29.5325,-93.8116,2.0,214.6961439,28.2663351,-99999.0,'11111222,11111222,99999999' 
TABS,ioos:station:TABS:A:1,1997-02-04T09:30:00Z,29.5325,-93.8116,2.0,204.5953687,27.19770762,-99999.0,'11111222,11111222,99999999' 
TABS,ioos:station:TABS:A:1,1997-02-04T10:00:00Z,29.5325,-93.8116,2.0,204.1700462,25.47317216,-99999.0,'11111222,11111222,99999999' 
TABS,ioos:station:TABS:A:1,1997-02-04T10:30:00Z,29.5325,-93.8116,2.0,208.1802194,28.39593281,-99999.0,'11111222,11111222,99999999' 
TABS,ioos:station:TABS:A:1,1997-02-04T11:00:00Z,29.5325,-93.8116,2.0,205.2008543,27.9945584,-99999.0,'11111222,11111222,99999999' 
TABS,ioos:station:TABS:A:1,1997-02-04T11:30:00Z,29.5325,-93.8116,2.0,209.4906111,26.02150265,-99999.0,'11111222,11111222,99999999' 
TABS,ioos:station:TABS:A:1,1997-02-04T12:00:00Z,29.5325,-93.8116,2.0,215.6061488,27.12059365,-99999.0,'11111222,11111222,99999999' 
TABS,ioos:station:TABS:A:1,1997-02-04T12:30:00Z,29.5325,-93.8116,2.0,213.8357913,32.64975957,-99999.0,'11111222,11111222,99999999' 
TABS,ioos:station:TABS:A:1,1997-02-04T13:00:00Z,29.5325,-93.8116,2.0,214.9859925,32.73568848,-99999.0,'11111222,11111222,99999999' 
TABS,ioos:station:TABS:A:1,1997-02-04T13:30:00Z,29.5325,-93.8116,2.0,219.3826582,36.62722621,-99999.0,'11111222,11111222,99999999' 
TABS,ioos:station:TABS:A:1,1997-02-04T14:00:00Z,29.5325,-93.8116,2.0,223.0109184,42.38122462,-99999.0,'11111222,11111222,99999999' 
TABS,ioos:station:TABS:A:1,1997-02-04T14:30:00Z,29.5325,-93.8116,2.0,225.2655144,45.72201658,-99999.0,'11111222,11111222,99999999' 
TABS,ioos:station:TABS:A:1,1997-02-04T15:00:00Z,29.5325,-93.8116,2.0,231.4544333,46.86003094,-99999.0,'11111222,11111222,99999999' 
TABS,ioos:station:TABS:A:1,1997-02-04T15:30:00Z,29.5325,-93.8116,2.0,240.116392,43.65415215,-99999.0,'11111222,11111222,99999999' 
TABS,ioos:station:TABS:A:1,1997-02-04T16:00:00Z,29.5325,-93.8116,2.0,244.0960308,45.71274768,-99999.0,'11111222,11111222,99999999' 
TABS,ioos:station:TABS:A:1,1997-02-04T16:30:00Z,29.5325,-93.8116,2.0,218.9743155,58.2693101,-99999.0,'11111222,11111222,99999999' 
TABS,ioos:station:TABS:A:1,1997-02-04T17:00:00Z,29.5325,-93.8116,2.0,231.3870934,58.72916311,-99999.0,'11111222,11111222,99999999' 
TABS,ioos:station:TABS:A:1,1997-02-04T17:30:00Z,29.5325,-93.8116,2.0,239.4310311,59.18556919,-99999.0,'11111222,11111222,99999999' 
TABS,ioos:station:TABS:A:1,1997-02-04T18:00:00Z,29.5325,-93.8116,2.0,243.2998298,57.04225188,-99999.0,'11111222,11111222,99999999' 